Location: Six Mile Lake
(44.9000°N, 79.7170°W)
Time: 13:20:27
(UTC-04:00)

EO-79 - Pass Details

Date: 29 June 2022
Orbit: 588 x 603 km, 98.0° (Epoch: 18 August)

Event Time Altitude Azimuth Distance (km) Brightness Sun altitude
Rises 03:03:10 0° 13° (NNE) 2,853 ? -18.1°
Reaches altitude 10° 03:05:20 10° 14° (NNE) 1,949 ? -17.9°
Maximum altitude 03:09:35 84° 104° (ESE) 610 ? -17.6°
Enters shadow 03:11:19 35° 189° (S) 976 ? -17.5°
